DateTimeUTC,F1_A11,F1_S11,BsB_S11,BsG_S11,BsR_S11,BbsB_S11,BbsG_S11,BbsR_S11,BaB_A11,BaG_A11,BaR_A11,Tu_S11,T_S11,Uu_S11,U_S11,P_S11,T1_A11
2021-09-01T07:00:00Z,00040200,21000000,,,,,,,0000.11,0000.18,-000.00,18.2,25.2,00.3,00.2,0674.3,30.9
2021-09-01T07:01:00Z,00040200,21000000,,,,,,,0000.19,0000.04,0000.50,18.3,25.3,00.3,00.2,0674.3,31.0
2021-09-01T07:02:00Z,00040200,21000000,,,,,,,-000.04,-000.29,-000.08,18.3,25.3,00.3,00.2,0674.4,31.0
2021-09-01T07:03:00Z,00040200,61000000,,,,,,,0000.24,0000.71,0000.21,18.3,25.3,00.3,00.2,0674.4,31.0
2021-09-01T07:04:00Z,00040200,41000000,0001.83,0001.70,0000.84,0000.16,0000.24,0000.21,0000.29,0000.36,-000.08,18.8,25.2,00.4,00.3,0675.3,31.0
2021-09-01T07:05:00Z,00040200,01000000,0002.24,0001.61,0000.90,0000.75,0000.12,0000.19,0000.22,0000.03,0000.44,18.8,25.2,00.4,00.3,0675.4,31.0
2021-09-01T07:06:00Z,00040200,01000000,0001.58,0001.42,0000.89,0000.12,0000.31,0000.15,0000.60,0000.37,0000.19,18.7,25.2,00.6,00.4,0675.4,31.0
2021-09-01T07:07:00Z,00040200,01000000,0001.60,0001.35,0001.07,0000.61,0000.03,-000.02,0000.29,0000.49,0000.24,18.7,25.1,00.6,00.4,0675.4,30.9
2021-09-01T07:08:00Z,00040200,01000000,0002.38,0001.58,0001.34,0000.50,0000.04,0000.10,0000.67,0000.35,0000.56,18.6,25.1,00.6,00.4,0675.4,30.9
2021-09-01T07:09:00Z,00040200,01000000,0002.13,0001.55,0001.18,0000.01,0000.16,0000.37,0000.26,0000.42,0000.38,18.5,25.0,00.6,00.4,0675.4,30.9
2021-09-01T07:10:00Z,00040200,01000000,0001.15,0001.22,0001.11,0000.42,-000.05,0000.16,0000.48,0000.48,-000.49,18.5,25.0,00.7,00.5,0675.4,30.9
2021-09-01T07:11:00Z,00040200,01000000,0001.66,0001.64,0001.35,0000.51,0000.15,0000.49,0000.43,0000.45,0001.22,18.4,25.0,00.7,00.5,0675.4,30.9
2021-09-01T07:12:00Z,00040200,01000000,0002.01,0001.44,0000.67,-000.16,0000.23,0000.20,0000.31,-000.07,-000.60,18.4,24.9,00.7,00.5,0675.4,30.9
2021-09-01T07:13:00Z,00040200,01000000,0001.36,0001.30,0001.08,0000.35,-000.08,0000.44,0000.58,0000.43,0000.74,18.3,24.9,00.8,00.5,0675.4,30.9
2021-09-01T07:14:00Z,00040200,01000000,0002.02,0001.66,0001.00,0000.35,0000.42,0000.54,0000.42,0000.80,0000.94,18.3,24.9,00.8,00.5,0675.4,30.9
2021-09-01T07:15:00Z,00040200,01000000,0001.71,0001.53,0000.63,0000.97,0000.38,-000.18,0000.50,0000.49,-000.01,18.4,24.9,00.7,00.5,0675.4,30.9
2021-09-01T07:16:00Z,00040200,01000000,0001.69,0001.76,0000.85,0000.25,0000.26,0000.11,0000.44,0000.25,0000.18,18.5,24.9,00.8,00.6,0675.5,30.9
2021-09-01T07:17:00Z,00040200,01000000,0001.62,0001.56,0001.16,0000.26,0000.06,0000.22,0000.52,0000.60,0000.44,18.6,25.0,00.8,00.6,0675.5,31.0
2021-09-01T07:18:00Z,00040200,01000000,0001.42,0001.37,0000.99,0000.51,0000.27,0000.13,0000.24,0000.22,0000.24,18.7,25.0,00.9,00.6,0675.5,31.0
2021-09-01T07:19:00Z,00040200,01000000,0002.36,0001.63,0001.30,0000.31,0000.26,-000.00,0000.47,0000.19,0000.29,18.8,25.1,00.8,00.6,0675.5,31.0
2021-09-01T07:20:00Z,00040200,01000000,0002.39,0001.94,0000.72,0000.61,0000.30,0000.26,0000.50,0000.50,0000.50,18.9,25.1,00.8,00.5,0675.5,31.0
2021-09-01T07:21:00Z,00040200,01000000,0001.50,0001.28,0000.78,0000.86,0000.30,0000.16,-000.08,-000.02,-000.18,18.9,25.1,00.8,00.5,0675.5,31.0
2021-09-01T07:22:00Z,00040200,01000000,0001.78,0001.60,0001.39,0000.53,0000.07,-000.02,0000.32,0000.38,0000.06,18.8,25.1,00.8,00.6,0675.5,31.0
2021-09-01T07:23:00Z,00040200,01000000,0001.96,0001.47,0001.15,-000.02,0000.17,0000.23,0000.47,0000.57,0000.38,18.7,25.1,00.8,00.5,0675.5,31.0
2021-09-01T07:24:00Z,00040200,01000000,0001.79,0001.86,0001.18,0000.16,0000.48,-000.03,0000.65,0000.35,0000.57,18.7,25.0,00.8,00.6,0675.6,30.9
2021-09-01T07:25:00Z,00040200,01000000,0001.84,0001.65,0000.98,0000.76,0000.28,-000.06,0000.49,0000.13,0000.21,18.6,25.0,00.9,00.6,0675.6,30.9
2021-09-01T07:26:00Z,00040200,01000000,0002.62,0001.66,0001.21,0000.11,0000.08,0000.24,-000.03,0000.51,-000.03,18.6,25.0,00.9,00.6,0675.5,30.9
2021-09-01T07:27:00Z,00040200,01000000,0001.92,0001.63,0001.27,-000.13,0000.24,0000.61,0000.41,0000.52,0000.52,18.5,25.0,00.9,00.6,0675.5,30.9
2021-09-01T07:28:00Z,00040200,01000000,0002.07,0001.72,0001.20,0000.38,0000.70,0000.21,0000.72,0000.27,0000.44,18.5,24.9,01.0,00.7,0675.5,30.9
2021-09-01T07:29:00Z,00040200,01000000,0002.30,0001.43,0000.74,0000.59,0000.10,0000.36,0000.82,0000.51,0000.35,18.5,24.9,01.0,00.7,0675.5,30.9
2021-09-01T07:30:00Z,00040200,01000000,0001.96,0001.82,0001.37,0000.17,0000.11,0000.01,0000.31,0000.48,0000.71,18.6,24.9,01.1,00.7,0675.6,30.9
2021-09-01T07:31:00Z,00040200,01000000,0002.16,0001.53,0000.87,0000.57,0000.38,0000.15,0000.17,0000.16,0000.02,18.7,25.0,01.0,00.7,0675.5,31.0
2021-09-01T07:32:00Z,00040200,01000000,0001.69,0001.43,0001.39,0000.94,0000.13,0000.23,0000.47,0000.83,0000.46,18.8,25.0,01.0,00.7,0675.6,31.0
2021-09-01T07:33:00Z,00040200,01000000,0002.53,0001.98,0000.77,0000.68,0000.38,-000.08,0000.57,0000.29,0000.35,18.9,25.1,01.0,00.7,0675.6,31.0
2021-09-01T07:34:00Z,00040200,01000000,0002.12,0001.31,0000.98,0000.45,0000.23,0000.29,0000.16,0000.20,0000.26,18.9,25.1,01.1,00.7,0675.6,31.0
2021-09-01T07:35:00Z,00040200,01000000,0002.59,0001.65,0000.92,0000.57,0000.23,-000.04,0000.47,0000.25,-000.22,18.9,25.1,01.1,00.7,0675.6,31.0
2021-09-01T07:36:00Z,00040200,01000000,0001.68,0001.58,0001.03,0000.69,0000.15,0000.37,0000.24,0000.48,0000.76,18.8,25.1,01.2,00.8,0675.6,31.0
2021-09-01T07:37:00Z,00040200,01000000,0000.98,0001.25,0001.12,0000.33,0000.20,0000.21,0000.33,0000.15,0000.03,18.7,25.0,01.2,00.8,0675.6,31.0
2021-09-01T07:38:00Z,00040200,01000000,0002.11,0001.34,0001.06,0000.02,0000.41,0000.32,0000.41,0000.15,0000.06,18.7,25.0,01.2,00.8,0675.6,30.9
2021-09-01T07:39:00Z,00040200,01000000,0002.12,0001.87,0000.99,0000.42,0000.29,0000.01,0000.39,0000.65,0000.37,18.6,25.0,01.2,00.8,0675.6,31.0
2021-09-01T07:40:00Z,00040200,01000000,0001.33,0001.93,0000.82,0000.09,0000.20,0000.17,0000.29,-000.11,0000.18,18.6,25.0,01.1,00.7,0675.6,30.9
2021-09-01T07:41:00Z,00040200,01000000,0001.17,0001.61,0001.26,0000.14,0000.14,0000.31,0000.54,0000.92,0000.27,18.5,24.9,01.2,00.8,0675.6,30.9
2021-09-01T07:42:00Z,00040200,01000000,0001.49,0001.32,0000.72,0000.21,0000.37,0000.11,0000.25,0000.24,0000.42,18.5,24.9,01.2,00.8,0675.6,30.9
2021-09-01T07:43:00Z,00040200,01000000,0002.73,0001.58,0001.00,0000.63,0000.37,0000.20,0000.13,0000.26,0000.07,18.4,24.9,01.2,00.8,0675.6,30.9
2021-09-01T07:44:00Z,00040200,01000000,0001.90,0000.93,0000.66,0000.67,0000.26,0000.46,0000.69,0000.30,0000.53,18.4,24.9,01.3,00.8,0675.6,30.9
2021-09-01T07:45:00Z,00040200,01000000,0002.53,0002.26,0001.43,0000.11,0000.13,0000.17,0000.80,0000.90,0000.25,18.5,24.9,01.3,00.9,0675.6,30.9
2021-09-01T07:46:00Z,00040200,01000000,0001.70,0001.70,0000.94,0000.36,0000.26,0000.48,0000.37,0000.47,0000.47,18.6,24.9,01.3,00.9,0675.6,30.9
2021-09-01T07:47:00Z,00040200,01000000,0001.68,0002.11,0001.28,-000.02,0000.34,0000.28,0000.40,0000.13,0000.47,18.7,25.0,01.3,00.9,0675.6,31.0
2021-09-01T07:48:00Z,00040200,01000000,0002.71,0001.76,0001.18,0000.46,0000.30,0000.40,0000.39,0000.44,0000.21,18.8,25.0,01.4,00.9,0675.6,31.0
2021-09-01T07:49:00Z,00040200,01000000,0002.27,0001.50,0001.23,0000.16,0000.40,0000.34,0000.30,0000.17,0000.29,18.8,25.0,01.3,00.9,0675.6,31.0
2021-09-01T07:50:00Z,00040200,01000000,0002.22,0001.50,0001.23,0000.56,0000.48,0000.14,0000.02,0000.19,-000.08,18.8,25.0,01.3,00.9,0675.6,31.0
2021-09-01T07:51:00Z,00040200,01000000,0002.18,0001.61,0001.03,0000.59,0000.30,0000.12,0000.46,0000.58,0000.23,18.7,25.0,01.4,00.9,0675.6,31.0
2021-09-01T07:52:00Z,00040200,01000000,0001.96,0001.75,0001.23,0000.26,0000.18,0000.36,0000.56,0000.37,0000.11,18.7,25.0,01.3,00.9,0675.6,31.0
2021-09-01T07:53:00Z,00040200,01000000,0001.96,0001.85,0001.28,0000.40,0000.14,0000.09,0000.65,0000.05,0000.63,18.6,24.9,01.4,00.9,0675.6,30.9
2021-09-01T07:54:00Z,00040200,01000000,0004.41,0003.06,0001.89,0000.88,0000.08,0000.99,0000.31,0000.81,0000.20,18.5,24.9,01.3,00.9,0675.6,30.9
2021-09-01T07:55:00Z,00040200,01000000,0003.97,0003.85,0002.30,0000.84,0000.41,0000.40,0000.93,0000.72,0001.12,18.5,24.9,01.4,00.9,0675.6,30.9
2021-09-01T07:56:00Z,00040200,01000000,0003.70,0003.15,0002.06,0000.51,0000.19,0000.34,0000.87,0000.59,0000.42,18.4,24.9,01.4,00.9,0675.6,30.9
2021-09-01T07:57:00Z,00040200,41000000,,,,,,,-000.26,-000.40,-000.51,18.5,24.9,00.9,00.6,0675.6,30.9
2021-09-01T07:58:00Z,00040200,61000000,,,,,,,0000.01,0000.55,0000.56,18.1,25.0,01.2,00.8,0674.6,30.9
2021-09-01T07:59:00Z,00040200,21000000,,,,,,,0000.48,0000.34,0000.11,18.1,25.1,01.2,00.8,0674.6,30.9
